Leonardtown, MD

2:50 PM EDT on October 21, 2017 (GMT -0400)
Leonardtown

Weather History for K2W6 - January, 2013

Change the Weather History Date:

Thursday, January 17, 2013

  Actual Average (KNHK) Record (KNHK)
Temperature  
Mean Temperature 38 °F -  
Max Temperature 42 °F 39 °F 61 °F (2012)
Min Temperature 33 °F 22 °F -3 °F (1977)
Degree Days  
Heating Degree Days 28    
Moisture  
Dew Point 37 °F    
Average Humidity 91    
Maximum Humidity 100    
Minimum Humidity 81    
Precipitation  
Precipitation 0.00 in - - ()
Sea Level Pressure  
Sea Level Pressure 30.08 in    
Wind  
Wind Speed 0 mph (NNW)    
Max Wind Speed 4 mph    
Max Gust Speed -    
Visibility 6 miles    
Events      
Averages and records for this station are not official NWS values.
T = Trace of Precipitation, MM = Missing Value Source: NWS Daily Summary

Daily Weather History Graph

Daily Weather History Graph

Search for Another Location

Airport or City:

Trip Planner

Search our weather history database for the weather conditions in past years. The results will help you decide how hot, cold, wet, or windy it might be!

Date:

Astronomy

Jan. 17, 2013 Rise Set
Actual Time 7:20 AM EST 5:12 PM EST
Civil Twilight 6:52 AM EST 5:41 PM EST
Nautical Twilight 6:19 AM EST 6:13 PM EST
Astronomical Twilight 5:48 AM EST 6:45 PM EST
Moon 10:32 AM EST (1/17) 11:54 PM EST (1/17)
Length of Visible Light 10h 48m
Length of Day
9h 51m
Waxing Crescent, 37% of the Moon is Illuminated
Jan 17
Waxing Crescent
Jan 18
First Quarter
Jan 26
Full
Feb 3
Last Quarter
Feb 10
New

Hourly Weather History & Observations

Time (EST) Temp. Windchill Dew Point Humidity Pressure Visibility Wind Dir Wind Speed Gust Speed Precip Events Conditions
12:03 AM 41.0 °F - 41.0 °F 100% 29.99 in 7.0 mi Calm Calm - N/A   Overcast
12:24 AM 42.8 °F - 41.0 °F 93% 30.01 in 10.0 mi Calm Calm - N/A   Overcast
12:49 AM 42.8 °F - 41.0 °F 93% 30.01 in 10.0 mi Calm Calm - N/A   Overcast
1:10 AM 42.8 °F - 41.0 °F 93% 30.01 in 10.0 mi Calm Calm - N/A   Overcast
1:31 AM 42.8 °F - 41.0 °F 93% 30.01 in 10.0 mi Calm Calm - N/A   Overcast
1:53 AM 42.8 °F - 41.0 °F 93% 30.02 in 7.0 mi Calm Calm - N/A   Overcast
2:14 AM 42.8 °F 41.1 °F 41.0 °F 93% 30.05 in 5.0 mi West 3.5 mph - N/A   Overcast
2:56 AM 42.8 °F - 41.0 °F 93% 30.04 in 5.0 mi Calm Calm - N/A   Overcast
3:18 AM 42.8 °F - 41.0 °F 93% 30.04 in 4.0 mi Calm Calm - N/A   Overcast
3:39 AM 42.8 °F - 41.0 °F 93% 30.03 in 4.0 mi Calm Calm - N/A   Overcast
4:00 AM 42.8 °F - 41.0 °F 93% 30.02 in 5.0 mi Calm Calm - N/A   Overcast
4:22 AM 42.8 °F - 41.0 °F 93% 30.03 in 5.0 mi Calm Calm - N/A   Overcast
4:43 AM 42.8 °F - 41.0 °F 93% 30.02 in 5.0 mi Calm Calm - N/A   Overcast
5:04 AM 42.8 °F 41.1 °F 41.0 °F 93% 30.05 in 5.0 mi West 3.5 mph - N/A   Overcast
5:26 AM 42.8 °F - 41.0 °F 93% 30.04 in 5.0 mi Calm Calm - N/A   Overcast
5:47 AM 42.8 °F - 41.0 °F 93% 30.05 in 7.0 mi Calm Calm - N/A   Overcast
6:08 AM 42.8 °F - 41.0 °F 93% 30.06 in 5.0 mi Calm Calm - N/A   Overcast
6:29 AM 42.8 °F - 41.0 °F 93% 30.06 in 4.0 mi Calm Calm - N/A   Overcast
6:51 AM 42.8 °F - 41.0 °F 93% 30.05 in 5.0 mi Calm Calm - N/A   Overcast
7:12 AM 42.8 °F - 41.0 °F 93% 30.07 in 5.0 mi Calm Calm - N/A   Overcast
7:33 AM 42.8 °F - 41.0 °F 93% 30.07 in 1.8 mi Calm Calm - N/A   Overcast
7:54 AM 42.8 °F - 41.0 °F 93% 30.09 in 2.0 mi Calm Calm - N/A   Overcast
8:16 AM 42.8 °F - 41.0 °F 93% 30.09 in 2.0 mi Calm Calm - N/A   Overcast
8:37 AM 42.8 °F - 41.0 °F 93% 30.11 in 2.5 mi Calm Calm - N/A   Overcast
8:58 AM 42.8 °F - 41.0 °F 93% 30.13 in 3.0 mi Calm Calm - N/A   Overcast
9:20 AM 42.8 °F - 41.0 °F 93% 30.14 in 2.5 mi Calm Calm - N/A   Overcast
9:41 AM 42.8 °F - 37.4 °F 81% 30.13 in 10.0 mi Calm Calm - N/A   Overcast
10:23 AM 41.0 °F - 37.4 °F 87% 30.14 in 10.0 mi Calm Calm - N/A   Overcast
10:45 AM 41.0 °F - 37.4 °F 87% 30.13 in 10.0 mi Calm Calm - N/A   Overcast
11:06 AM 41.0 °F - 37.4 °F 87% 30.12 in 10.0 mi Calm Calm - N/A   Overcast
11:27 AM 41.0 °F - 35.6 °F 81% 30.14 in 10.0 mi Calm Calm - N/A   Overcast
11:48 AM 41.0 °F - 37.4 °F 87% 30.12 in 10.0 mi Calm Calm - N/A   Overcast
12:10 PM 39.2 °F - 35.6 °F 87% 30.10 in 10.0 mi Calm Calm - N/A   Overcast
12:31 PM 41.0 °F - 35.6 °F 81% 30.09 in 10.0 mi Calm Calm - N/A   Overcast
1:13 PM 39.2 °F - 35.6 °F 87% 30.09 in 10.0 mi Calm Calm - N/A   Overcast
1:35 PM 37.4 °F - 33.8 °F 87% 30.07 in 7.0 mi Calm Calm - N/A   Overcast
1:56 PM 37.4 °F - 33.8 °F 87% 30.10 in 10.0 mi Calm Calm - N/A   Overcast
2:17 PM 39.2 °F - 33.8 °F 81% 30.12 in 10.0 mi Calm Calm - N/A   Overcast
2:38 PM 39.2 °F - 33.8 °F 81% 30.10 in 10.0 mi Calm Calm - N/A   Overcast
3:00 PM 37.4 °F - 35.6 °F 93% 30.09 in 10.0 mi Calm Calm - N/A   Overcast
3:21 PM 37.4 °F - 35.6 °F 93% 30.12 in 10.0 mi Calm Calm - N/A   Overcast
3:42 PM 37.4 °F - 33.8 °F 87% 30.10 in 5.0 mi Calm Calm - N/A   Overcast
4:03 PM 37.4 °F 34.9 °F 33.8 °F 87% 30.09 in 5.0 mi NE 3.5 mph - N/A   Overcast
4:25 PM 37.4 °F 34.9 °F 33.8 °F 87% 30.11 in 5.0 mi NNW 3.5 mph - N/A   Overcast
4:46 PM 35.6 °F - 33.8 °F 93% 30.13 in 3.0 mi Calm Calm - N/A   Overcast
5:07 PM 35.6 °F 32.8 °F 33.8 °F 93% 30.13 in 3.0 mi North 3.5 mph - N/A   Overcast
5:28 PM 35.6 °F 32.8 °F 33.8 °F 93% 30.12 in 4.0 mi NNE 3.5 mph - N/A   Overcast
5:50 PM 35.6 °F - 33.8 °F 93% 30.12 in 7.0 mi Calm Calm - N/A   Overcast
6:11 PM 35.6 °F - 33.8 °F 93% 30.12 in 5.0 mi Calm Calm - N/A   Overcast
6:53 PM 35.6 °F - 33.8 °F 93% 30.12 in 3.0 mi Calm Calm - N/A   Overcast
6:54 PM 35.6 °F - 33.8 °F 93% 30.12 in 3.0 mi Calm Calm - N/A   Overcast
7:15 PM 35.6 °F - 33.8 °F 93% 30.11 in 4.0 mi Calm Calm - N/A   Overcast
7:36 PM 35.6 °F - 33.8 °F 93% 30.11 in 4.0 mi Calm Calm - N/A   Overcast
7:57 PM 35.6 °F 32.8 °F 33.8 °F 93% 30.12 in 2.5 mi ESE 3.5 mph - N/A   Overcast
8:19 PM 33.8 °F - 32.0 °F 93% 30.11 in 3.0 mi Calm Calm - N/A   Overcast
8:40 PM 33.8 °F 30.8 °F 32.0 °F 93% 30.06 in 3.0 mi NNE 3.5 mph - N/A   Overcast
9:01 PM 33.8 °F - 32.0 °F 93% 30.08 in 4.0 mi Calm Calm - N/A   Overcast
9:22 PM 33.8 °F - 32.0 °F 93% 30.09 in 4.0 mi Calm Calm - N/A   Overcast
9:44 PM 33.8 °F - 32.0 °F 93% 30.10 in 4.0 mi Calm Calm - N/A   Overcast
10:05 PM 33.8 °F - 32.0 °F 93% 30.09 in 4.0 mi Calm Calm - N/A   Overcast
10:26 PM 33.8 °F - 32.0 °F 93% 30.07 in 3.0 mi Calm Calm - N/A   Overcast
10:48 PM 33.8 °F 30.8 °F 32.0 °F 93% 30.08 in 2.5 mi WNW 3.5 mph - N/A   Overcast
11:09 PM 33.8 °F - 32.0 °F 93% 30.05 in 3.0 mi Calm Calm - N/A   Overcast
11:30 PM 33.8 °F 30.8 °F 32.0 °F 93% 30.10 in 4.0 mi West 3.5 mph - N/A   Overcast
11:52 PM 33.8 °F - 32.0 °F 93% 30.07 in 4.0 mi Calm Calm - N/A   Overcast